Time,TemperatureF,DewpointF,PressureIn,WindDirection,WindDirectionDegrees,WindSpeedMPH,WindSpeedGustMPH,Humidity,HourlyPrecipIn,Conditions,Clouds,dailyrainin,SoftwareType,DateUTC
2013-03-01 00:00:00,43.8,36.0,29.86,West,278,0.0,0.0,74,0.00,,,0.00,Wunderground v.1.15,2013-03-01 05:00:00,
2013-03-01 00:05:00,43.8,36.0,29.86,West,281,0.0,0.0,74,0.00,,,0.00,Wunderground v.1.15,2013-03-01 05:05:00,
2013-03-01 00:10:00,43.9,36.1,29.86,WNW,290,0.0,1.0,74,0.00,,,0.00,Wunderground v.1.15,2013-03-01 05:10:00,
2013-03-01 00:15:00,44.0,35.9,29.86,WNW,290,0.0,1.0,73,0.00,,,0.00,Wunderground v.1.15,2013-03-01 05:15:00,
2013-03-01 00:20:00,44.0,35.6,29.86,WNW,297,0.0,0.0,72,0.00,,,0.00,Wunderground v.1.15,2013-03-01 05:20:00,
2013-03-01 00:30:00,44.0,35.6,29.86,WNW,288,0.0,1.0,72,0.00,,,0.00,Wunderground v.1.15,2013-03-01 05:30:00,
2013-03-01 00:40:00,44.1,35.6,29.87,West,278,0.0,0.0,72,0.00,,,0.00,Wunderground v.1.15,2013-03-01 05:40:00,
2013-03-01 00:50:00,44.1,35.3,29.87,WNW,287,1.0,1.0,71,0.00,,,0.00,Wunderground v.1.15,2013-03-01 05:50:00,
2013-03-01 01:00:00,44.2,35.0,29.87,NW,309,1.0,2.0,70,0.00,,,0.00,Wunderground v.1.15,2013-03-01 06:00:00,
2013-03-01 01:10:00,44.2,35.0,29.87,WNW,288,1.0,1.0,70,0.00,,,0.00,Wunderground v.1.15,2013-03-01 06:10:00,
2013-03-01 01:20:00,44.1,34.6,29.87,WNW,296,2.0,5.0,69,0.00,,,0.00,Wunderground v.1.15,2013-03-01 06:20:00,
2013-03-01 01:30:00,43.9,34.7,29.87,WNW,290,3.0,3.0,70,0.00,,,0.00,Wunderground v.1.15,2013-03-01 06:30:00,
2013-03-01 01:40:00,43.7,34.6,29.87,NW,309,3.0,3.0,70,0.00,,,0.00,Wunderground v.1.15,2013-03-01 06:40:00,
2013-03-01 01:50:00,43.5,34.4,29.87,NW,308,2.0,2.0,70,0.00,,,0.00,Wunderground v.1.15,2013-03-01 06:50:00,
2013-03-01 02:00:00,43.3,34.5,29.86,NW,309,1.0,1.0,71,0.00,,,0.00,Wunderground v.1.15,2013-03-01 07:00:00,
2013-03-01 02:10:00,43.2,34.8,29.87,NW,306,1.0,1.0,72,0.00,,,0.00,Wunderground v.1.15,2013-03-01 07:10:00,
2013-03-01 02:20:00,43.1,34.7,29.87,WNW,297,1.0,3.0,72,0.00,,,0.00,Wunderground v.1.15,2013-03-01 07:20:00,
2013-03-01 02:25:00,43.1,34.3,29.87,West,273,1.0,3.0,71,0.00,,,0.00,Wunderground v.1.15,2013-03-01 07:25:00,
2013-03-01 02:35:00,43.3,33.8,29.86,NNE,30,0.0,4.0,69,0.00,,,0.00,Wunderground v.1.15,2013-03-01 07:35:00,
2013-03-01 02:45:00,43.3,33.4,29.87,NW,315,1.0,2.0,68,0.00,,,0.00,Wunderground v.1.15,2013-03-01 07:45:00,
2013-03-01 02:55:00,43.3,33.1,29.87,NW,304,0.0,1.0,67,0.00,,,0.00,Wunderground v.1.15,2013-03-01 07:55:00,
2013-03-01 03:05:00,43.1,32.5,29.87,NNW,340,1.0,1.0,66,0.00,,,0.00,Wunderground v.1.15,2013-03-01 08:05:00,
2013-03-01 03:15:00,43.1,32.5,29.88,WNW,303,1.0,1.0,66,0.00,,,0.00,Wunderground v.1.15,2013-03-01 08:15:00,
2013-03-01 03:25:00,42.9,32.3,29.87,WNW,302,0.0,0.0,66,0.00,,,0.00,Wunderground v.1.15,2013-03-01 08:25:00,
2013-03-01 03:30:00,42.9,32.7,29.87,WNW,284,0.0,0.0,67,0.00,,,0.00,Wunderground v.1.15,2013-03-01 08:30:00,
2013-03-01 03:35:00,42.8,32.2,29.87,WNW,296,0.0,0.0,66,0.00,,,0.00,Wunderground v.1.15,2013-03-01 08:35:00,
2013-03-01 03:45:00,42.7,32.1,29.87,WNW,290,0.0,0.0,66,0.00,,,0.00,Wunderground v.1.15,2013-03-01 08:45:00,
2013-03-01 03:55:00,42.5,31.9,29.88,NW,313,0.0,0.0,66,0.00,,,0.00,Wunderground v.1.15,2013-03-01 08:55:00,
2013-03-01 04:05:00,42.4,32.2,29.88,NW,313,0.0,0.0,67,0.00,,,0.00,Wunderground v.1.15,2013-03-01 09:05:00,
2013-03-01 04:10:00,42.4,32.2,29.89,NW,313,0.0,0.0,67,0.00,,,0.00,Wunderground v.1.15,2013-03-01 09:10:00,
2013-03-01 04:20:00,42.1,31.6,29.88,NW,309,0.0,0.0,66,0.00,,,0.00,Wunderground v.1.15,2013-03-01 09:20:00,
2013-03-01 04:30:00,41.9,31.4,29.89,WNW,293,0.0,2.0,66,0.00,,,0.00,Wunderground v.1.15,2013-03-01 09:30:00,
2013-03-01 04:40:00,41.8,31.6,29.90,WNW,293,0.0,0.0,67,0.00,,,0.00,Wunderground v.1.15,2013-03-01 09:40:00,
2013-03-01 04:45:00,41.8,31.6,29.90,WNW,293,0.0,0.0,67,0.00,,,0.00,Wunderground v.1.15,2013-03-01 09:45:00,
2013-03-01 04:54:00,41.8,31.6,29.90,West,281,0.0,0.0,67,0.00,,,0.00,Wunderground v.1.15,2013-03-01 09:54:00,
2013-03-01 05:00:00,41.7,31.5,29.90,WNW,283,0.0,0.0,67,0.00,,,0.00,Wunderground v.1.15,2013-03-01 10:00:00,
2013-03-01 05:10:00,41.6,31.1,29.91,NW,306,0.0,0.0,66,0.00,,,0.00,Wunderground v.1.15,2013-03-01 10:10:00,
2013-03-01 05:15:00,41.5,31.4,29.91,NW,306,0.0,0.0,67,0.00,,,0.00,Wunderground v.1.15,2013-03-01 10:15:00,
2013-03-01 05:20:00,41.5,31.7,29.91,NW,304,0.0,0.0,68,0.00,,,0.00,Wunderground v.1.15,2013-03-01 10:20:00,
2013-03-01 05:30:00,41.3,31.9,29.90,WNW,296,0.0,0.0,69,0.00,,,0.00,Wunderground v.1.15,2013-03-01 10:30:00,
2013-03-01 05:40:00,40.9,31.9,29.90,WNW,300,1.0,2.0,70,0.00,,,0.00,Wunderground v.1.15,2013-03-01 10:40:00,
2013-03-01 05:45:00,40.7,32.0,29.90,WNW,294,1.0,2.0,71,0.00,,,0.00,Wunderground v.1.15,2013-03-01 10:45:00,
2013-03-01 05:55:00,40.5,32.2,29.90,WNW,296,0.0,1.0,72,0.00,,,0.00,Wunderground v.1.15,2013-03-01 10:55:00,
2013-03-01 06:00:00,40.4,31.7,29.89,NW,305,1.0,1.0,71,0.00,,,0.00,Wunderground v.1.15,2013-03-01 11:00:00,
2013-03-01 06:10:00,40.1,31.8,29.90,NW,311,2.0,2.0,72,0.00,,,0.00,Wunderground v.1.15,2013-03-01 11:10:00,
2013-03-01 06:20:00,40.0,32.0,29.90,NW,307,0.0,0.0,73,0.00,,,0.00,Wunderground v.1.15,2013-03-01 11:20:00,
2013-03-01 06:25:00,40.0,32.0,29.90,WNW,303,0.0,0.0,73,0.00,,,0.00,Wunderground v.1.15,2013-03-01 11:25:00,
2013-03-01 06:35:00,39.8,32.2,29.90,WNW,295,0.0,1.0,74,0.00,,,0.00,Wunderground v.1.15,2013-03-01 11:35:00,
2013-03-01 06:45:00,39.7,32.1,29.90,WNW,294,0.0,3.0,74,0.00,,,0.00,Wunderground v.1.15,2013-03-01 11:45:00,
2013-03-01 06:50:00,39.6,32.0,29.90,NW,310,1.0,2.0,74,0.00,,,0.00,Wunderground v.1.15,2013-03-01 11:50:00,
2013-03-01 06:55:00,39.6,32.3,29.90,WNW,292,1.0,2.0,75,0.00,,,0.00,Wunderground v.1.15,2013-03-01 11:55:00,
2013-03-01 07:05:00,39.5,32.2,29.90,NW,311,1.0,2.0,75,0.00,,,0.00,Wunderground v.1.15,2013-03-01 12:05:00,
2013-03-01 07:15:00,39.5,32.2,29.90,WNW,296,2.0,2.0,75,0.00,,,0.00,Wunderground v.1.15,2013-03-01 12:15:00,
2013-03-01 07:20:00,39.4,32.1,29.91,WNW,292,2.0,2.0,75,0.00,,,0.00,Wunderground v.1.15,2013-03-01 12:20:00,
2013-03-01 07:25:00,39.4,32.1,29.91,WNW,296,3.0,3.0,75,0.00,,,0.00,Wunderground v.1.15,2013-03-01 12:25:00,
2013-03-01 07:35:00,39.5,32.6,29.91,NW,309,1.0,4.0,76,0.00,,,0.00,Wunderground v.1.15,2013-03-01 12:35:00,
2013-03-01 07:40:00,39.5,32.6,29.91,WNW,284,2.0,2.0,76,0.00,,,0.00,Wunderground v.1.15,2013-03-01 12:40:00,
2013-03-01 07:50:00,39.6,32.3,29.91,NW,313,2.0,2.0,75,0.00,,,0.00,Wunderground v.1.15,2013-03-01 12:50:00,
2013-03-01 08:00:00,40.1,32.8,29.91,WNW,295,2.0,2.0,75,0.00,,,0.00,Wunderground v.1.15,2013-03-01 13:00:00,
2013-03-01 08:05:00,40.2,32.6,29.91,WNW,298,2.0,2.0,74,0.00,,,0.00,Wunderground v.1.15,2013-03-01 13:05:00,
2013-03-01 08:15:00,40.4,32.4,29.92,WNW,301,2.0,5.0,73,0.00,,,0.00,Wunderground v.1.15,2013-03-01 13:15:00,
2013-03-01 08:25:00,40.7,32.7,29.92,WNW,303,3.0,3.0,73,0.00,,,0.00,Wunderground v.1.15,2013-03-01 13:25:00,
2013-03-01 08:35:00,41.0,32.7,29.92,NW,315,3.0,6.0,72,0.00,,,0.00,Wunderground v.1.15,2013-03-01 13:35:00,
2013-03-01 08:45:00,41.4,33.0,29.91,NNW,327,3.0,3.0,72,0.00,,,0.00,Wunderground v.1.15,2013-03-01 13:45:00,
2013-03-01 08:55:00,42.3,33.2,29.91,NW,318,2.0,3.0,70,0.00,,,0.00,Wunderground v.1.15,2013-03-01 13:55:00,
2013-03-01 09:05:00,42.3,32.5,29.92,NW,314,3.0,5.0,68,0.00,,,0.00,Wunderground v.1.15,2013-03-01 14:05:00,
2013-03-01 09:15:00,42.6,33.1,29.92,NW,309,2.0,4.0,69,0.00,,,0.00,Wunderground v.1.15,2013-03-01 14:15:00,
2013-03-01 09:25:00,42.9,32.7,29.91,NW,307,2.0,3.0,67,0.00,,,0.00,Wunderground v.1.15,2013-03-01 14:25:00,
2013-03-01 09:30:00,43.3,33.4,29.92,WNW,293,1.0,3.0,68,0.00,,,0.00,Wunderground v.1.15,2013-03-01 14:30:00,
2013-03-01 09:40:00,43.5,32.5,29.91,NW,311,2.0,6.0,65,0.00,,,0.00,Wunderground v.1.15,2013-03-01 14:40:00,
2013-03-01 09:50:00,44.0,32.6,29.92,NW,306,2.0,2.0,64,0.00,,,0.00,Wunderground v.1.15,2013-03-01 14:50:00,
2013-03-01 09:55:00,44.3,33.3,29.92,WNW,289,1.0,5.0,65,0.00,,,0.00,Wunderground v.1.15,2013-03-01 14:55:00,
2013-03-01 10:05:00,45.1,32.0,29.92,NNE,17,2.0,4.0,60,0.00,,,0.00,Wunderground v.1.15,2013-03-01 15:05:00,
2013-03-01 10:15:00,45.8,32.7,29.92,WNW,297,2.0,3.0,60,0.00,,,0.00,Wunderground v.1.15,2013-03-01 15:15:00,
2013-03-01 10:25:00,46.1,31.3,29.92,NW,314,2.0,4.0,56,0.00,,,0.00,Wunderground v.1.15,2013-03-01 15:25:00,
2013-03-01 10:30:00,46.1,32.1,29.92,WNW,291,2.0,3.0,58,0.00,,,0.00,Wunderground v.1.15,2013-03-01 15:30:00,
2013-03-01 10:35:00,46.5,31.6,29.91,WSW,256,2.0,3.0,56,0.00,,,0.00,Wunderground v.1.15,2013-03-01 15:35:00,
2013-03-01 10:45:00,47.2,31.4,29.91,NNW,331,2.0,3.0,54,0.00,,,0.00,Wunderground v.1.15,2013-03-01 15:45:00,
2013-03-01 10:50:00,47.1,30.4,29.91,North,11,2.0,3.0,52,0.00,,,0.00,Wunderground v.1.15,2013-03-01 15:50:00,
2013-03-01 11:00:00,47.6,31.3,29.91,West,277,1.0,7.0,53,0.00,,,0.00,Wunderground v.1.15,2013-03-01 16:00:00,
2013-03-01 11:10:00,47.9,31.1,29.91,NNE,12,2.0,2.0,52,0.00,,,0.00,Wunderground v.1.15,2013-03-01 16:10:00,
2013-03-01 11:20:00,48.1,31.3,29.91,West,277,1.0,2.0,52,0.00,,,0.00,Wunderground v.1.15,2013-03-01 16:20:00,
2013-03-01 11:25:00,48.4,31.1,29.91,WNW,300,2.0,2.0,51,0.00,,,0.00,Wunderground v.1.15,2013-03-01 16:25:00,
2013-03-01 11:34:00,48.0,30.7,29.90,WNW,286,4.0,12.0,51,0.00,,,0.00,Wunderground v.1.15,2013-03-01 16:34:00,
2013-03-01 11:40:00,48.3,31.5,29.90,WNW,284,5.0,5.0,52,0.00,,,0.00,Wunderground v.1.15,2013-03-01 16:40:00,
2013-03-01 11:50:00,48.5,30.7,29.90,WNW,290,5.0,5.0,50,0.00,,,0.00,Wunderground v.1.15,2013-03-01 16:50:00,
2013-03-01 11:55:00,49.0,30.1,29.90,NW,304,4.0,5.0,48,0.00,,,0.00,Wunderground v.1.15,2013-03-01 16:55:00,
2013-03-01 12:05:00,48.6,30.3,29.89,West,266,4.0,5.0,49,0.00,,,0.00,Wunderground v.1.15,2013-03-01 17:05:00,
2013-03-01 12:15:00,48.5,30.7,29.89,NW,304,3.0,4.0,50,0.00,,,0.00,Wunderground v.1.15,2013-03-01 17:15:00,
2013-03-01 12:25:00,49.3,30.9,29.89,East,94,2.0,4.0,49,0.00,,,0.00,Wunderground v.1.15,2013-03-01 17:25:00,
2013-03-01 12:35:00,50.4,30.9,29.88,NW,311,1.0,5.0,47,0.00,,,0.00,Wunderground v.1.15,2013-03-01 17:35:00,
2013-03-01 12:45:00,49.8,30.9,29.88,NNW,339,4.0,5.0,48,0.00,,,0.00,Wunderground v.1.15,2013-03-01 17:45:00,
2013-03-01 12:55:00,50.8,31.3,29.87,WNW,290,1.0,9.0,47,0.00,,,0.00,Wunderground v.1.15,2013-03-01 17:55:00,
2013-03-01 13:05:00,51.0,30.9,29.86,West,273,3.0,3.0,46,0.00,,,0.00,Wunderground v.1.15,2013-03-01 18:05:00,
2013-03-01 13:15:00,51.2,31.1,29.86,West,273,2.0,6.0,46,0.00,,,0.00,Wunderground v.1.15,2013-03-01 18:15:00,
2013-03-01 13:25:00,50.2,32.3,29.86,North,355,2.0,3.0,50,0.00,,,0.00,Wunderground v.1.15,2013-03-01 18:25:00,
2013-03-01 13:35:00,50.9,30.8,29.85,WNW,291,5.0,5.0,46,0.00,,,0.00,Wunderground v.1.15,2013-03-01 18:35:00,
2013-03-01 13:45:00,50.8,31.3,29.85,West,276,5.0,9.0,47,0.00,,,0.00,Wunderground v.1.15,2013-03-01 18:45:00,
2013-03-01 13:55:00,50.9,32.4,29.84,NW,306,3.0,5.0,49,0.00,,,0.00,Wunderground v.1.15,2013-03-01 18:55:00,
2013-03-01 14:05:00,51.1,31.6,29.84,WNW,289,2.0,3.0,47,0.00,,,0.00,Wunderground v.1.15,2013-03-01 19:05:00,
2013-03-01 14:15:00,51.4,33.4,29.84,WNW,287,2.0,2.0,50,0.00,,,0.00,Wunderground v.1.15,2013-03-01 19:15:00,
2013-03-01 14:25:00,51.9,32.3,29.84,NNE,22,3.0,5.0,47,0.00,,,0.00,Wunderground v.1.15,2013-03-01 19:25:00,
2013-03-01 14:35:00,52.5,32.8,29.83,WSW,254,2.0,5.0,47,0.00,,,0.00,Wunderground v.1.15,2013-03-01 19:35:00,
2013-03-01 14:45:00,52.4,32.2,29.83,NW,311,7.0,11.0,46,0.00,,,0.00,Wunderground v.1.15,2013-03-01 19:45:00,
2013-03-01 14:55:00,53.3,33.0,29.83,NW,309,5.0,9.0,46,0.00,,,0.00,Wunderground v.1.15,2013-03-01 19:55:00,
2013-03-01 15:05:00,52.8,31.5,29.83,West,273,6.0,10.0,44,0.00,,,0.00,Wunderground v.1.15,2013-03-01 20:05:00,
2013-03-01 15:15:00,52.6,31.8,29.83,WNW,292,6.0,7.0,45,0.00,,,0.00,Wunderground v.1.15,2013-03-01 20:15:00,
2013-03-01 15:25:00,53.5,32.1,29.83,NW,305,3.0,5.0,44,0.00,,,0.00,Wunderground v.1.15,2013-03-01 20:25:00,
2013-03-01 15:35:00,53.5,32.1,29.83,WSW,241,5.0,5.0,44,0.00,,,0.00,Wunderground v.1.15,2013-03-01 20:35:00,
2013-03-01 15:45:00,52.9,32.1,29.83,WNW,292,7.0,7.0,45,0.00,,,0.00,Wunderground v.1.15,2013-03-01 20:45:00,
2013-03-01 15:55:00,53.5,32.7,29.83,NW,304,4.0,6.0,45,0.00,,,0.00,Wunderground v.1.15,2013-03-01 20:55:00,
2013-03-01 16:00:00,53.9,33.6,29.83,WNW,298,3.0,4.0,46,0.00,,,0.00,Wunderground v.1.15,2013-03-01 21:00:00,
2013-03-01 16:10:00,53.9,32.5,29.83,ENE,64,5.0,5.0,44,0.00,,,0.00,Wunderground v.1.15,2013-03-01 21:10:00,
2013-03-01 16:15:00,53.7,33.4,29.83,WNW,296,5.0,5.0,46,0.00,,,0.00,Wunderground v.1.15,2013-03-01 21:15:00,
2013-03-01 16:25:00,53.0,32.2,29.83,NW,308,4.0,5.0,45,0.00,,,0.00,Wunderground v.1.15,2013-03-01 21:25:00,
2013-03-01 16:35:00,52.9,32.7,29.84,NW,304,4.0,6.0,46,0.00,,,0.00,Wunderground v.1.15,2013-03-01 21:35:00,
2013-03-01 16:45:00,52.8,33.6,29.84,WNW,288,3.0,4.0,48,0.00,,,0.00,Wunderground v.1.15,2013-03-01 21:45:00,
2013-03-01 16:50:00,52.7,32.5,29.84,WNW,298,3.0,6.0,46,0.00,,,0.00,Wunderground v.1.15,2013-03-01 21:50:00,
2013-03-01 17:00:00,52.6,32.9,29.84,NW,311,3.0,3.0,47,0.00,,,0.00,Wunderground v.1.15,2013-03-01 22:00:00,
2013-03-01 17:05:00,52.5,32.3,29.84,NW,304,3.0,3.0,46,0.00,,,0.00,Wunderground v.1.15,2013-03-01 22:05:00,
2013-03-01 17:15:00,52.4,32.7,29.85,West,281,2.0,4.0,47,0.00,,,0.00,Wunderground v.1.15,2013-03-01 22:15:00,
2013-03-01 17:25:00,52.1,32.5,29.85,West,268,2.0,6.0,47,0.00,,,0.00,Wunderground v.1.15,2013-03-01 22:25:00,
2013-03-01 17:30:00,52.1,33.5,29.86,WNW,288,3.0,3.0,49,0.00,,,0.00,Wunderground v.1.15,2013-03-01 22:30:00,
2013-03-01 17:40:00,51.9,32.3,29.85,West,278,3.0,3.0,47,0.00,,,0.00,Wunderground v.1.15,2013-03-01 22:40:00,
2013-03-01 17:45:00,51.8,32.7,29.85,WNW,297,2.0,3.0,48,0.00,,,0.00,Wunderground v.1.15,2013-03-01 22:45:00,
2013-03-01 17:55:00,51.6,33.6,29.85,WNW,285,2.0,2.0,50,0.00,,,0.00,Wunderground v.1.15,2013-03-01 22:55:00,
2013-03-01 18:05:00,51.5,33.5,29.86,WNW,290,1.0,1.0,50,0.00,,,0.00,Wunderground v.1.15,2013-03-01 23:05:00,
2013-03-01 18:10:00,51.4,33.4,29.86,WNW,288,0.0,0.0,50,0.00,,,0.00,Wunderground v.1.15,2013-03-01 23:10:00,
2013-03-01 18:20:00,51.2,33.7,29.87,West,279,0.0,0.0,51,0.00,,,0.00,Wunderground v.1.15,2013-03-01 23:20:00,
2013-03-01 18:30:00,51.1,34.1,29.87,West,281,0.0,0.0,52,0.00,,,0.00,Wunderground v.1.15,2013-03-01 23:30:00,
2013-03-01 18:35:00,51.0,34.0,29.87,West,281,0.0,0.0,52,0.00,,,0.00,Wunderground v.1.15,2013-03-01 23:35:00,
2013-03-01 18:45:00,50.8,34.3,29.88,West,281,0.0,0.0,53,0.00,,,0.00,Wunderground v.1.15,2013-03-01 23:45:00,
2013-03-01 18:55:00,50.5,34.5,29.88,West,281,0.0,0.0,54,0.00,,,0.00,Wunderground v.1.15,2013-03-01 23:55:00,
2013-03-01 19:05:00,50.3,34.7,29.89,WNW,283,0.0,0.0,55,0.00,,,0.00,Wunderground v.1.15,2013-03-02 00:05:00,
2013-03-01 19:10:00,50.2,35.5,29.88,WNW,283,0.0,0.0,57,0.00,,,0.00,Wunderground v.1.15,2013-03-02 00:10:00,
2013-03-01 19:20:00,50.0,35.4,29.88,WNW,283,0.0,0.0,57,0.00,,,0.00,Wunderground v.1.15,2013-03-02 00:20:00,
2013-03-01 19:30:00,49.9,35.7,29.88,WNW,283,0.0,0.0,58,0.00,,,0.00,Wunderground v.1.15,2013-03-02 00:30:00,
2013-03-01 19:40:00,49.4,36.1,29.89,West,277,0.0,0.0,60,0.00,,,0.00,Wunderground v.1.15,2013-03-02 00:40:00,
2013-03-01 19:50:00,49.2,35.9,29.89,West,277,0.0,0.0,60,0.00,,,0.00,Wunderground v.1.15,2013-03-02 00:50:00,
2013-03-01 20:00:00,48.9,35.6,29.88,West,277,0.0,0.0,60,0.00,,,0.00,Wunderground v.1.15,2013-03-02 01:00:00,
2013-03-01 20:10:00,48.7,36.3,29.89,West,277,0.0,0.0,62,0.00,,,0.00,Wunderground v.1.15,2013-03-02 01:10:00,
2013-03-01 20:20:00,48.4,36.0,29.89,West,277,0.0,0.0,62,0.00,,,0.00,Wunderground v.1.15,2013-03-02 01:20:00,
2013-03-01 20:30:00,48.2,36.2,29.89,West,277,0.0,0.0,63,0.00,,,0.00,Wunderground v.1.15,2013-03-02 01:30:00,
2013-03-01 20:40:00,48.0,36.0,29.89,West,277,0.0,0.0,63,0.00,,,0.00,Wunderground v.1.15,2013-03-02 01:40:00,
2013-03-01 20:50:00,47.9,36.3,29.90,West,277,0.0,0.0,64,0.00,,,0.00,Wunderground v.1.15,2013-03-02 01:50:00,
2013-03-01 21:00:00,47.9,37.1,29.90,West,277,0.0,0.0,66,0.00,,,0.00,Wunderground v.1.15,2013-03-02 02:00:00,
2013-03-01 21:05:00,47.9,37.8,29.90,West,277,0.0,0.0,68,0.00,,,0.00,Wunderground v.1.15,2013-03-02 02:05:00,
2013-03-01 21:10:00,47.9,37.5,29.90,West,277,0.0,0.0,67,0.00,,,0.00,Wunderground v.1.15,2013-03-02 02:10:00,
2013-03-01 21:20:00,47.6,36.8,29.91,West,277,0.0,0.0,66,0.00,,,0.00,Wunderground v.1.15,2013-03-02 02:20:00,
2013-03-01 21:30:00,47.5,37.1,29.91,West,277,0.0,0.0,67,0.00,,,0.00,Wunderground v.1.15,2013-03-02 02:30:00,
2013-03-01 21:35:00,47.4,37.0,29.91,West,277,0.0,0.0,67,0.00,,,0.00,Wunderground v.1.15,2013-03-02 02:35:00,
2013-03-01 21:40:00,47.3,37.3,29.91,West,277,0.0,0.0,68,0.00,,,0.00,Wunderground v.1.15,2013-03-02 02:40:00,
2013-03-01 21:50:00,46.9,36.9,29.91,West,277,0.0,0.0,68,0.00,,,0.00,Wunderground v.1.15,2013-03-02 02:50:00,
2013-03-01 21:55:00,46.7,36.7,29.91,West,277,0.0,0.0,68,0.00,,,0.00,Wunderground v.1.15,2013-03-02 02:55:00,
2013-03-01 22:05:00,46.5,36.9,29.92,West,279,0.0,0.0,69,0.00,,,0.00,Wunderground v.1.15,2013-03-02 03:05:00,
2013-03-01 22:15:00,46.2,36.2,29.92,North,355,0.0,0.0,68,0.00,,,0.00,Wunderground v.1.15,2013-03-02 03:15:00,
2013-03-01 22:25:00,46.1,35.4,29.92,North,5,0.0,0.0,66,0.00,,,0.00,Wunderground v.1.15,2013-03-02 03:25:00,
2013-03-01 22:35:00,46.1,35.4,29.92,North,5,0.0,0.0,66,0.00,,,0.00,Wunderground v.1.15,2013-03-02 03:35:00,
2013-03-01 22:45:00,45.9,35.6,29.92,North,5,0.0,0.0,67,0.00,,,0.00,Wunderground v.1.15,2013-03-02 03:45:00,
2013-03-01 22:50:00,45.5,35.5,29.92,North,5,0.0,0.0,68,0.00,,,0.00,Wunderground v.1.15,2013-03-02 03:50:00,
2013-03-01 23:00:00,44.7,35.5,29.92,North,5,0.0,0.0,70,0.00,,,0.00,Wunderground v.1.15,2013-03-02 04:00:00,
2013-03-01 23:10:00,44.0,35.6,29.92,North,5,0.0,0.0,72,0.00,,,0.00,Wunderground v.1.15,2013-03-02 04:10:00,
2013-03-01 23:15:00,43.6,35.5,29.91,North,5,0.0,0.0,73,0.00,,,0.00,Wunderground v.1.15,2013-03-02 04:15:00,
2013-03-01 23:25:00,43.1,35.7,29.91,North,5,0.0,0.0,75,0.00,,,0.00,Wunderground v.1.15,2013-03-02 04:25:00,
2013-03-01 23:35:00,42.7,35.7,29.91,North,5,0.0,0.0,76,0.00,,,0.00,Wunderground v.1.15,2013-03-02 04:35:00,
2013-03-01 23:45:00,42.3,35.6,29.91,North,5,0.0,0.0,77,0.00,,,0.00,Wunderground v.1.15,2013-03-02 04:45:00,
2013-03-01 23:55:00,42.2,35.5,29.91,North,5,0.0,0.0,77,0.00,,,0.00,Wunderground v.1.15,2013-03-02 04:55:00,